Welcome to the New NWS' Forecast!
Most changes are behind the scenes, but click here for differences you might notice.

Regional Weather Roundup (RWR)

Issued by National Weather Service (NWS)

                            
200 
ASUS42 KTBW 221517
RWRFL 
FLORIDA REGIONAL WEATHER ROUNDUP
NATIONAL WEATHER SERVICE TAMPA BAY RUSKIN FL
1100 AM EDT SAT SEP 22 2018

NOTE: "FAIR" INDICATES FEW OR NO CLOUDS BELOW 12,000 FEET WITH NO
SIGNIFICANT WEATHER AND/OR OBSTRUCTIONS TO VISIBILITY.

FLZ001>010-012>015-112-114-115-221600-
PANHANDLE FLORIDA
  
CITY           SKY/WX    TMP DP  RH WIND       PRES   REMARKS
PENSACOLA      FAIR      84  76  76 E9        30.04R                  
PENSACOLA NAS  PTSUNNY   84  79  85 NE8       30.04R HX  96           
MILTON NAS     FAIR      83  76  79 E5        30.06R                  
CRESTVIEW      FAIR      84  74  71 NE5       30.08R                  
VALPARAISO     MOSUNNY   84  74  72 E5        30.06                   
PANAMA CITY    FAIR      85  72  65 E3        30.06R                  
APALACHICOLA   FAIR      84  79  85 E8        30.06R HX  96           

STATION/POSITION SKY/WX   TEMP    WIND        PRES    WAVE   SWELL
                          AIR SEA DIR/SP/G            HT/PER HT/PER
                          (F)     (DEG/KT/KT) (MB)    (FT/S) (FT/S)
30.1N   87.6W              85     110/ 12/ 14 1017.3
29.2N   88.2W                 87  140/ 10/ 12 1017.0R   2/ 6   2/ 6
28.8N   86.0W              84 86   90/ 12/ 16   N/A     2/ 5
PANAMA CITY BEAC           83 86  130/  2/  3 1018.4R
TOWER C                    83     110/  9/ 11 1017.9S

$$
FLZ011-016>038-118-127-128-134-139-239-221600-
NORTH FLORIDA
  
CITY           SKY/WX    TMP DP  RH WIND       PRES   REMARKS
MARIANNA       FAIR      84  74  71 VRB7      30.07R                  
TALLAHASSEE    FAIR      84  73  69 E9        30.07S                  
PERRY          FAIR      85  74  69 NE6       30.09R                  
LIVE OAK       MOSUNNY   82  73  74 NE6       30.08S                  
CROSS CITY     PTSUNNY   84  73  68 NE7       30.08R                  
LAKE CITY      PTSUNNY   82  72  69 E5        30.09S                  
GAINESVILLE    FAIR      86  72  62 E6        30.10S                  
PALATKA        FAIR      82  73  74 E7        30.08S                  
MAYPORT NAS    FAIR      86  73  65 E9        30.09R                  
JACKSONVILLE   FAIR      85  70  60 NE3       30.08S                  
JAX NAS        FAIR      84  72  67 E7        30.09S                  
JAX CECIL      MOSUNNY   90  72  55 E8        30.08S HX  96           
ST AUGUSTINE   FAIR      84  72  65 NE10      30.09R                  
PALM COAST     MOSUNNY   84  73  70 E7        30.07S                  

STATION/POSITION SKY/WX   TEMP    WIND        PRES    WAVE   SWELL
                          AIR SEA DIR/SP/G            HT/PER HT/PER
                          (F)     (DEG/KT/KT) (MB)    (FT/S) (FT/S)
SHELL POINT      NOT AVBL
KEATON BEACH               82      80/  5/  6 1018.6R
CEDAR KEY                  81      90/ 10/ 11 1018.5F
FERNANDINA                 86 85  100/  3/  7 1019.7R
30.7N   81.3W                 85                N/A     3/11
MAYPORT                    82 85   60/  6/ 10 1019.3R
31.4N   80.9W              82 84   70/  6/  8 1019.3R   2/ 9   2/ 9
ST AUGUSTINE               83 83   90/  7/  7 1019.3R

$$
FLZ040-043>046-052-053-057-058-063-144-221600-
INTERIOR CENTRAL FLORIDA
  
CITY           SKY/WX    TMP DP  RH WIND       PRES   REMARKS
OCALA          PTSUNNY   84  74  71 NE5       30.08S                  
LEESBURG       FAIR      86  74  67 NE9       30.07F                  
SANFORD        CLOUDY    78  73  84 NE7       30.08R                  
ORLANDO EXEC   FAIR      83  75  77 NE8       30.07S                  
ORLANDO INTL   PTSUNNY   84  75  74 NE10      30.06S                  
KISSIMMEE      FAIR      84  72  67 NE9       30.07S                  
WINTER HAVEN   FAIR      87  74  64 E14       30.07R HX  95           
LAKELAND       MOSUNNY   84  72  65 NE9       30.06R                  
SEBRING        FAIR      87  73  63 NE13      30.04S                  
OKEECHOBEE     PTSUNNY   84  73  70 NE8       30.03S                  

$$
FLZ041-047-054-059-064-141-147-221600-
EAST CENTRAL FLORIDA
  
CITY           SKY/WX    TMP DP  RH WIND       PRES   REMARKS
ORMOND BEACH   MOSUNNY   82  72  69 CALM      30.08R                  
DAYTONA BEACH  PTSUNNY   83  74  74 VRB5      30.08R                  
DELAND         PTSUNNY   81  73  78 NE6       30.08S                  
NEW SMYRNA BEA PTSUNNY   86  73  66 E8        30.08S                  
TITUSVILLE     PTSUNNY   84  72  65 NE9       30.07S                  
MELBOURNE      FAIR      85  72  65 NE12      30.05S                  
VERO BEACH     PTSUNNY   80  77  90 NE6       30.04S                  
FT PIERCE      FAIR      81  77  88 NE6       30.03S                  
STUART         MOSUNNY   86  75  70 NE6       30.04R HX  95           

STATION/POSITION SKY/WX   TEMP    WIND        PRES    WAVE   SWELL
                          AIR SEA DIR/SP/G            HT/PER HT/PER
                          (F)     (DEG/KT/KT) (MB)    (FT/S) (FT/S)
28.5N   80.2W              83      60/ 10/ 12 1018.0F   3/ 9   2/ 9
28.9N   78.5W              83 85   70/ 10/ 14 1018.3S
TRIDENT PIER               82 86   60/  7/ 10 1019.3F
28.4N   80.5W                 85                N/A     2/11
27.5N   80.2W                 83                N/A     4/11   2/11

$$
FLZ050-056-061-142-242-148-248-149-249-151-251-155-255-
160-260-221600-
WEST CENTRAL FLORIDA
  
CITY           SKY/WX    TMP DP  RH WIND       PRES   REMARKS
CRYSTAL RIVER  PTSUNNY   84  73  70 E7        30.07S                  
BROOKSVILLE    FAIR      85  73  67 E10       30.07R                  
CLEARWATER AIR FAIR      82  72  69 NE7       30.04S                  
ST PETE CLEARW FAIR      84  73  69 E9        30.04S                  
TAMPA INTL     PTSUNNY   87  72  60 NE8       30.04F                  
TAMPA EXEC     FAIR      86  73  66 E8        30.05F                  
PLANT CITY     FAIR      88  73  62 E9        30.07S HX  96           
PETER O KNIGHT FAIR      84  73  70 E9        30.04F                  
ST PETERSBURG  FAIR      83  75  77 E13       30.02S                  
SARASOTA       FAIR      85  75  72 NE12      30.01R                  
VENICE         FAIR      84  75  74 NE10      30.03R HAZE             

STATION/POSITION SKY/WX   TEMP    WIND        PRES    WAVE   SWELL
                          AIR SEA DIR/SP/G            HT/PER HT/PER
                          (F)     (DEG/KT/KT) (MB)    (FT/S) (FT/S)
CLEARWATER BEACH           83 88   50/  7/ 11 1017.4F
MIDDLE TAMPA BAY           81      90/ 12/ 14 1017.2S
VENICE                     83 85   70/  7/  9   N/A

$$
FLZ066-069-070-075>078-162-262-165-265-221600-
SOUTHWEST FLORIDA AND KEYS
  
CITY           SKY/WX    TMP DP  RH WIND       PRES   REMARKS
PUNTA GORDA    FAIR      86  74  67 E12       30.04R                  
FT MYERS       PTSUNNY   85  76  74 E9        30.02R                  
SOUTHWEST INTL FAIR      84  76  76 E8        30.02R                  
NAPLES         FAIR      85  76  74 E10       30.01S                  
MARCO ISLAND   PTSUNNY   85  77  77 MISG      30.03R HX  95           
IMMOKALEE        N/A     90  75  62 VRB6      30.03R HX 100           
MARATHON       FAIR      90  76  63 E9        30.00R HX 101           
KEY WEST NAS   PTSUNNY   88  76  67 E6        30.00R THUNDER HX  99   
KEY WEST INTL  FAIR      89  76  65 E8        30.00S HX 100           

STATION/POSITION SKY/WX   TEMP    WIND        PRES    WAVE   SWELL
                          AIR SEA DIR/SP/G            HT/PER HT/PER
                          (F)     (DEG/KT/KT) (MB)    (FT/S) (FT/S)
NAPLES                     83 87  100/  4/  8 1016.4R
26.0N   85.6W              83 85   60/ 10/ 12 1016.1
DRY TORTUGAS               84     100/ 10/ 11 1015.9F
SAND KEY                   83                 1015.6R
SOMBRERO KEY               84      80/  9/ 12 1015.1R
LONG KEY                   85 87  120/ 10/ 11 1015.9R
MOLASSES REEF              84 86   80/  7/  8 1016.3

$$
FLZ067-068-071>074-168-172>174-221600-
SOUTHEAST FLORIDA 
  
CITY           SKY/WX    TMP DP  RH WIND       PRES   REMARKS
W PALM BEACH   FAIR      86  76  71 E9        30.02R HX  96           
BOCA RATON     MOSUNNY   88  73  62 E9G17     30.01R HX  96           
FT LAUDER-EXEC FAIR      88  75  65 NE9       30.01R HX  97           
FT LAUDERDALE  FAIR      87  76  69 E10       30.00R HX  97           
POMPANO BEACH  FAIR      89  74  60 E9        30.01R HX  98           
PEMBROKE PINES FAIR      89  74  60 E8        30.02R HX  98           
OPA LOCKA      FAIR      84  75  74 E9        30.01S                  
MIAMI          PTSUNNY   87  75  67 E8        30.01R HX  96           
WEST KENDALL   FAIR      87  75  67 E9        30.01R HX  96           
HOMESTEAD      NOT AVBL                                               

STATION/POSITION SKY/WX   TEMP    WIND        PRES    WAVE   SWELL
                          AIR SEA DIR/SP/G            HT/PER HT/PER
                          (F)     (DEG/KT/KT) (MB)    (FT/S) (FT/S)
PORT EVERGLADES            85      70/  6/  9 1016.3R
VIRGINIA KEY               85 88   50/  7/  8 1015.9R
LAKE WORTH                 82 86              1017.7R
FOWEY ROCKS                84 85   70/  7/  8 1016.9R
SETTLEMENT POINT           84      80/  6/  7 1017.1R

$$